Data No,UTC Date,UTC Time,Latitude,Longitude,Course(deg),Temp(degC),Sal(psu)
570,2022/8/26,9:29,42-36.87N,141-37.01E,212,21.048,31.2064
571,2022/8/26,9:30,42-36.65N,141-36.80E,214,21.148,31.1782
572,2022/8/26,9:31,42-36.37N,141-36.68E,190,21.125,31.1236
573,2022/8/26,9:32,42-36.13N,141-36.67E,181,21.111,30.9707
574,2022/8/26,9:33,42-35.88N,141-36.68E,178,21.269,30.793
575,2022/8/26,9:34,42-35.62N,141-36.69E,178,21.343,30.9169
576,2022/8/26,9:35,42-35.35N,141-36.69E,179,21.387,31.0516
577,2022/8/26,9:36,42-35.08N,141-36.69E,180,21.411,31.1763
578,2022/8/26,9:37,42-34.81N,141-36.69E,180,21.415,31.3082
579,2022/8/26,9:38,42-34.54N,141-36.69E,181,21.441,31.3645
580,2022/8/26,9:39,42-34.27N,141-36.68E,181,21.424,31.4425
581,2022/8/26,9:40,42-34.00N,141-36.67E,180,21.348,31.4738
582,2022/8/26,9:41,42-33.72N,141-36.67E,180,21.39,31.5368
583,2022/8/26,9:42,42-33.46N,141-36.66E,181,21.395,31.555
584,2022/8/26,9:43,42-33.18N,141-36.66E,180,21.36,31.5847
585,2022/8/26,9:44,42-32.92N,141-36.65E,180,21.284,31.6528
586,2022/8/26,9:45,42-32.64N,141-36.65E,180,21.241,31.7368
587,2022/8/26,9:46,42-32.37N,141-36.65E,180,21.254,31.8171
588,2022/8/26,9:47,42-32.10N,141-36.64E,180,21.283,31.9492
589,2022/8/26,9:48,42-31.82N,141-36.64E,180,21.287,32.0599
590,2022/8/26,9:49,42-31.56N,141-36.63E,181,21.292,32.1168
591,2022/8/26,9:50,42-31.28N,141-36.63E,180,21.256,32.2116
592,2022/8/26,9:51,42-31.01N,141-36.62E,180,21.213,32.239
593,2022/8/26,9:52,42-30.75N,141-36.62E,180,21.173,32.2589
594,2022/8/26,9:53,42-30.47N,141-36.62E,180,21.168,32.2631
595,2022/8/26,9:54,42-30.21N,141-36.61E,180,21.171,32.2505
596,2022/8/26,9:55,42-29.94N,141-36.61E,180,21.158,32.2348
597,2022/8/26,9:56,42-29.67N,141-36.60E,180,21.147,32.2258
598,2022/8/26,9:57,42-29.41N,141-36.60E,180,21.134,32.2309
599,2022/8/26,9:58,42-29.13N,141-36.60E,180,21.115,32.2396
600,2022/8/26,9:59,42-28.87N,141-36.60E,180,21.103,32.2498
601,2022/8/26,10:00,42-28.60N,141-36.60E,180,21.105,32.2702
602,2022/8/26,10:01,42-28.33N,141-36.60E,180,21.153,32.2896
603,2022/8/26,10:02,42-28.06N,141-36.59E,180,21.202,32.2958
604,2022/8/26,10:03,42-27.78N,141-36.59E,180,21.238,32.2959
605,2022/8/26,10:04,42-27.52N,141-36.57E,184,21.256,32.2807
606,2022/8/26,10:05,42-27.25N,141-36.54E,185,21.283,32.2554
607,2022/8/26,10:06,42-26.98N,141-36.50E,185,21.298,32.2275
608,2022/8/26,10:07,42-26.72N,141-36.46E,186,21.311,32.176
609,2022/8/26,10:08,42-26.45N,141-36.42E,185,21.339,32.1329
610,2022/8/26,10:09,42-26.18N,141-36.38E,186,21.346,32.1068
611,2022/8/26,10:10,42-25.93N,141-36.35E,186,21.338,32.0879
612,2022/8/26,10:11,42-25.66N,141-36.30E,186,21.303,32.0836
613,2022/8/26,10:12,42-25.40N,141-36.26E,186,21.282,32.1071
614,2022/8/26,10:13,42-25.14N,141-36.22E,186,21.251,32.1535
615,2022/8/26,10:14,42-24.89N,141-36.18E,186,21.239,32.1873
616,2022/8/26,10:15,42-24.62N,141-36.14E,186,21.181,32.2034
617,2022/8/26,10:16,42-24.36N,141-36.10E,186,21.098,32.2252
618,2022/8/26,10:17,42-24.11N,141-36.07E,185,20.985,32.2648
619,2022/8/26,10:18,42-23.84N,141-36.03E,186,20.956,32.3204
620,2022/8/26,10:19,42-23.57N,141-35.99E,186,20.91,32.3351
621,2022/8/26,10:20,42-23.32N,141-35.95E,186,20.857,32.3472
622,2022/8/26,10:21,42-23.05N,141-35.92E,186,20.819,32.3987
623,2022/8/26,10:22,42-22.79N,141-35.88E,186,20.758,32.441
624,2022/8/26,10:23,42-22.53N,141-35.84E,185,20.68,32.4809
625,2022/8/26,10:24,42-22.27N,141-35.81E,185,20.653,32.5578
626,2022/8/26,10:25,42-22.00N,141-35.77E,185,20.709,32.6171
627,2022/8/26,10:26,42-21.73N,141-35.73E,185,20.719,32.6585
628,2022/8/26,10:27,42-21.47N,141-35.70E,185,20.705,32.6902
629,2022/8/26,10:28,42-21.19N,141-35.66E,185,20.69,32.7016
630,2022/8/26,10:29,42-20.93N,141-35.63E,185,20.683,32.7115
631,2022/8/26,10:30,42-20.66N,141-35.60E,185,20.585,32.7058
632,2022/8/26,10:31,42-20.38N,141-35.56E,185,20.655,32.7264
633,2022/8/26,10:32,42-20.13N,141-35.52E,185,20.653,32.7326
634,2022/8/26,10:33,42-19.86N,141-35.49E,185,20.648,32.7191
635,2022/8/26,10:34,42-19.61N,141-35.46E,185,20.701,32.6987
636,2022/8/26,10:35,42-19.34N,141-35.43E,184,20.776,32.6788
637,2022/8/26,10:36,42-19.08N,141-35.39E,185,20.625,32.6542
638,2022/8/26,10:37,42-18.81N,141-35.36E,185,20.697,32.6278
639,2022/8/26,10:38,42-18.55N,141-35.33E,184,20.707,32.6299
640,2022/8/26,10:39,42-18.28N,141-35.30E,185,20.637,32.6057
641,2022/8/26,10:40,42-18.02N,141-35.26E,185,20.61,32.5953
642,2022/8/26,10:41,42-17.75N,141-35.23E,185,20.579,32.59
643,2022/8/26,10:42,42-17.49N,141-35.20E,184,20.541,32.5833
644,2022/8/26,10:43,42-17.22N,141-35.17E,184,20.514,32.5803
645,2022/8/26,10:44,42-16.96N,141-35.14E,185,20.5,32.5837
646,2022/8/26,10:45,42-16.69N,141-35.11E,184,20.508,32.5899
647,2022/8/26,10:46,42-16.42N,141-35.09E,184,20.49,32.5884
648,2022/8/26,10:47,42-16.16N,141-35.06E,184,20.497,32.5949
649,2022/8/26,10:48,42-15.88N,141-35.03E,184,20.56,32.6002
650,2022/8/26,10:49,42-15.62N,141-35.00E,185,20.61,32.607
651,2022/8/26,10:50,42-15.34N,141-34.97E,184,20.616,32.6077
652,2022/8/26,10:51,42-15.07N,141-34.94E,184,20.599,32.6021
653,2022/8/26,10:52,42-14.81N,141-34.91E,184,20.625,32.5894
654,2022/8/26,10:53,42-14.52N,141-34.88E,184,20.655,32.5805
655,2022/8/26,10:54,42-14.26N,141-34.85E,184,20.662,32.5714
656,2022/8/26,10:55,42-13.99N,141-34.82E,183,20.683,32.5625
657,2022/8/26,10:56,42-13.72N,141-34.80E,184,20.808,32.5561
658,2022/8/26,10:57,42-13.45N,141-34.77E,183,20.877,32.5475
659,2022/8/26,10:58,42-13.19N,141-34.75E,184,20.97,32.5292
660,2022/8/26,10:59,42-12.92N,141-34.72E,184,20.939,32.5046
661,2022/8/26,11:00,42-12.64N,141-34.69E,183,20.694,32.4726
662,2022/8/26,11:01,42-12.37N,141-34.67E,183,20.846,32.4747
663,2022/8/26,11:02,42-12.10N,141-34.65E,183,20.945,32.4875
664,2022/8/26,11:03,42-11.82N,141-34.62E,182,20.926,32.4744
665,2022/8/26,11:04,42-11.56N,141-34.60E,183,20.666,32.4503
666,2022/8/26,11:05,42-11.28N,141-34.58E,183,20.512,32.4452
667,2022/8/26,11:06,42-11.00N,141-34.56E,183,20.837,32.4698
668,2022/8/26,11:07,42-10.75N,141-34.54E,183,20.914,32.4635
669,2022/8/26,11:08,42-10.47N,141-34.52E,183,20.655,32.4473
670,2022/8/26,11:09,42-10.21N,141-34.50E,183,21.02,32.4254
671,2022/8/26,11:10,42-09.93N,141-34.46E,185,20.885,32.44
672,2022/8/26,11:11,42-09.65N,141-34.42E,187,21.296,32.419
673,2022/8/26,11:12,42-09.39N,141-34.37E,187,21.158,32.4193
674,2022/8/26,11:13,42-09.11N,141-34.33E,186,21.118,32.3984
675,2022/8/26,11:14,42-08.85N,141-34.29E,186,20.999,32.3762
676,2022/8/26,11:15,42-08.58N,141-34.24E,186,20.871,32.3786
677,2022/8/26,11:16,42-08.30N,141-34.20E,187,21.105,32.4254
678,2022/8/26,11:17,42-08.02N,141-34.15E,187,21.04,32.447
679,2022/8/26,11:18,42-07.76N,141-34.11E,186,20.586,32.4115
680,2022/8/26,11:19,42-07.49N,141-34.06E,187,19.96,32.4144
681,2022/8/26,11:20,42-07.22N,141-34.01E,187,19.567,32.6971
682,2022/8/26,11:21,42-06.95N,141-33.96E,187,19.685,32.9262
683,2022/8/26,11:22,42-06.67N,141-33.92E,187,19.322,33.0082
684,2022/8/26,11:23,42-06.41N,141-33.87E,187,18.893,33.0604
685,2022/8/26,11:24,42-06.14N,141-33.82E,187,19.395,33.094
686,2022/8/26,11:25,42-05.87N,141-33.77E,187,18.884,33.0631
687,2022/8/26,11:26,42-05.59N,141-33.72E,187,19.826,33.111
688,2022/8/26,11:27,42-05.34N,141-33.67E,189,20.608,33.0589
689,2022/8/26,11:28,42-05.08N,141-33.62E,187,20.835,33
690,2022/8/26,11:29,42-04.81N,141-33.57E,187,21.138,32.7333
691,2022/8/26,11:30,42-04.54N,141-33.53E,187,21.138,32.6226
692,2022/8/26,11:31,42-04.25N,141-33.47E,188,21.285,32.5492
693,2022/8/26,11:32,42-04.00N,141-33.42E,188,21.351,32.5144
694,2022/8/26,11:33,42-03.74N,141-33.38E,187,21.299,32.5008
695,2022/8/26,11:34,42-03.46N,141-33.34E,184,21.029,32.4988
696,2022/8/26,11:35,42-03.20N,141-33.32E,182,21.062,32.5166
697,2022/8/26,11:36,42-02.93N,141-33.30E,183,21.191,32.5746
698,2022/8/26,11:37,42-02.66N,141-33.28E,182,21.11,32.5765
699,2022/8/26,11:38,42-02.38N,141-33.26E,183,21.163,32.5737
700,2022/8/26,11:39,42-02.11N,141-33.24E,183,21.064,32.576
701,2022/8/26,11:40,42-01.85N,141-33.22E,182,21.052,32.5871
702,2022/8/26,11:41,42-01.57N,141-33.21E,182,20.69,32.6076
703,2022/8/26,11:42,42-01.30N,141-33.19E,183,20.745,32.6253
704,2022/8/26,11:43,42-01.02N,141-33.17E,182,20.524,32.6617
705,2022/8/26,11:44,42-00.75N,141-33.15E,182,20.834,32.6636
706,2022/8/26,11:45,42-00.47N,141-33.14E,181,21.009,32.6847
707,2022/8/26,11:46,42-00.19N,141-33.12E,183,20.902,32.6938
708,2022/8/26,11:47,41-59.93N,141-33.10E,182,20.744,32.6818
709,2022/8/26,11:48,41-59.66N,141-33.09E,181,20.682,32.6925
710,2022/8/26,11:49,41-59.38N,141-33.08E,182,20.808,32.7032
711,2022/8/26,11:50,41-59.11N,141-33.07E,180,20.881,32.6826
712,2022/8/26,11:51,41-58.84N,141-33.09E,174,20.87,32.653
713,2022/8/26,11:52,41-58.54N,141-33.14E,172,20.759,32.6307
714,2022/8/26,11:53,41-58.27N,141-33.20E,171,20.942,32.6318
715,2022/8/26,11:54,41-58.04N,141-33.24E,172,20.801,32.6286
716,2022/8/26,11:55,41-57.78N,141-33.29E,171,20.768,32.584
717,2022/8/26,11:56,41-57.51N,141-33.34E,171,20.665,32.5399
718,2022/8/26,11:57,41-57.24N,141-33.39E,171,20.592,32.5415
719,2022/8/26,11:58,41-56.97N,141-33.45E,171,20.602,32.5649
720,2022/8/26,11:59,41-56.68N,141-33.51E,171,20.694,32.5675
721,2022/8/26,12:00,41-56.42N,141-33.56E,171,20.67,32.5701
722,2022/8/26,12:01,41-56.16N,141-33.61E,171,20.499,32.5632
723,2022/8/26,12:02,41-55.88N,141-33.66E,171,20.441,32.5901
724,2022/8/26,12:03,41-55.59N,141-33.72E,171,20.738,32.626
725,2022/8/26,12:04,41-55.31N,141-33.77E,171,21.087,32.6404
726,2022/8/26,12:05,41-55.05N,141-33.82E,171,20.803,32.6403
727,2022/8/26,12:06,41-54.82N,141-33.86E,171,21.233,32.7039
728,2022/8/26,12:07,41-54.57N,141-33.91E,172,21.503,32.7914
729,2022/8/26,12:08,41-54.31N,141-33.96E,171,21.798,32.872
730,2022/8/26,12:09,41-54.05N,141-34.01E,170,22.592,32.9449
731,2022/8/26,12:10,41-53.80N,141-34.08E,168,21.975,33.1601
732,2022/8/26,12:11,41-53.54N,141-34.15E,168,21.643,33.241
733,2022/8/26,12:12,41-53.30N,141-34.21E,169,21.48,33.1157
734,2022/8/26,12:13,41-53.04N,141-34.27E,168,21.326,32.9177
735,2022/8/26,12:14,41-52.79N,141-34.34E,168,22.805,32.8737
736,2022/8/26,12:15,41-52.55N,141-34.40E,168,23.536,33.0439
737,2022/8/26,12:16,41-52.29N,141-34.47E,169,23.607,33.3878
738,2022/8/26,12:17,41-52.05N,141-34.53E,168,23.395,33.5444
739,2022/8/26,12:18,41-51.79N,141-34.60E,168,23.817,33.6095
740,2022/8/26,12:19,41-51.54N,141-34.68E,167,23.622,33.6292
741,2022/8/26,12:20,41-51.30N,141-34.75E,167,23.618,33.7051
742,2022/8/26,12:21,41-51.05N,141-34.83E,167,23.464,33.7274
743,2022/8/26,12:22,41-50.80N,141-34.90E,167,23.161,33.7528
744,2022/8/26,12:23,41-50.57N,141-34.97E,167,23.778,33.7776
745,2022/8/26,12:24,41-50.31N,141-35.02E,174,23.809,33.7861
746,2022/8/26,12:25,41-50.07N,141-35.04E,175,23.856,33.7801
747,2022/8/26,12:26,41-49.82N,141-35.07E,176,24.003,33.7891
748,2022/8/26,12:27,41-49.58N,141-35.09E,175,23.942,33.7946
749,2022/8/26,12:28,41-49.33N,141-35.11E,175,23.724,33.7964
750,2022/8/26,12:29,41-49.09N,141-35.13E,175,23.42,33.7906
751,2022/8/26,12:30,41-48.86N,141-35.17E,172,23.021,33.7925
752,2022/8/26,12:31,41-48.62N,141-35.23E,169,23.72,33.7817
753,2022/8/26,12:32,41-48.38N,141-35.29E,169,23.789,33.8079
754,2022/8/26,12:33,41-48.14N,141-35.35E,169,24.144,33.8014
755,2022/8/26,12:34,41-47.90N,141-35.41E,169,24.145,33.8018
756,2022/8/26,12:35,41-47.67N,141-35.47E,168,23.891,33.8019
757,2022/8/26,12:36,41-47.43N,141-35.53E,169,23.96,33.7896
758,2022/8/26,12:37,41-47.18N,141-35.59E,169,24.234,33.7697
759,2022/8/26,12:38,41-46.94N,141-35.64E,170,24.206,33.7785
760,2022/8/26,12:39,41-46.70N,141-35.70E,170,24.181,33.7856
761,2022/8/26,12:40,41-46.46N,141-35.75E,170,24.029,33.7747
762,2022/8/26,12:41,41-46.22N,141-35.81E,170,23.939,33.7661
763,2022/8/26,12:42,41-45.96N,141-35.87E,169,23.888,33.7617
764,2022/8/26,12:43,41-45.73N,141-35.92E,169,23.836,33.7652
765,2022/8/26,12:44,41-45.47N,141-35.99E,170,23.798,33.7616
766,2022/8/26,12:45,41-45.24N,141-36.04E,170,24.092,33.7576
767,2022/8/26,12:46,41-44.98N,141-36.09E,170,24.11,33.7603
768,2022/8/26,12:47,41-44.74N,141-36.15E,170,24.193,33.7529
769,2022/8/26,12:48,41-44.49N,141-36.20E,170,23.974,33.7451
770,2022/8/26,12:49,41-44.24N,141-36.26E,170,23.913,33.7208
771,2022/8/26,12:50,41-43.99N,141-36.31E,171,23.972,33.69
772,2022/8/26,12:51,41-43.75N,141-36.36E,170,24.187,33.6659
773,2022/8/26,12:52,41-43.50N,141-36.40E,174,24.355,33.6791
774,2022/8/26,12:53,41-43.24N,141-36.42E,176,24.474,33.6899
775,2022/8/26,12:54,41-42.98N,141-36.44E,177,24.524,33.7044
776,2022/8/26,12:55,41-42.73N,141-36.46E,176,24.537,33.7166
777,2022/8/26,12:56,41-42.47N,141-36.48E,176,24.51,33.7194
778,2022/8/26,12:57,41-42.21N,141-36.50E,176,24.508,33.7173
779,2022/8/26,12:58,41-41.96N,141-36.52E,177,24.511,33.7131
780,2022/8/26,12:59,41-41.70N,141-36.53E,177,24.519,33.7027
781,2022/8/26,13:00,41-41.44N,141-36.55E,176,24.394,33.6975
782,2022/8/26,13:01,41-41.19N,141-36.56E,179,24.371,33.692
783,2022/8/26,13:02,41-40.92N,141-36.56E,179,24.36,33.6603
784,2022/8/26,13:03,41-40.67N,141-36.56E,180,24.264,33.6366
785,2022/8/26,13:04,41-40.40N,141-36.56E,180,24.345,33.605
786,2022/8/26,13:05,41-40.14N,141-36.56E,179,24.319,33.6005
787,2022/8/26,13:06,41-39.88N,141-36.56E,179,23.733,33.597
788,2022/8/26,13:07,41-39.62N,141-36.56E,180,23.126,33.5622
789,2022/8/26,13:08,41-39.37N,141-36.56E,179,23.072,33.5534
790,2022/8/26,13:09,41-39.10N,141-36.56E,180,23.053,33.5449
791,2022/8/26,13:10,41-38.84N,141-36.57E,179,22.959,33.5557
792,2022/8/26,13:11,41-38.59N,141-36.57E,179,22.965,33.5618
793,2022/8/26,13:12,41-38.32N,141-36.57E,179,22.837,33.5532
794,2022/8/26,13:13,41-38.07N,141-36.57E,180,22.818,33.5532
795,2022/8/26,13:14,41-37.81N,141-36.57E,180,22.839,33.5535
796,2022/8/26,13:15,41-37.54N,141-36.57E,180,22.887,33.5607
797,2022/8/26,13:16,41-37.30N,141-36.56E,181,23.033,33.5564
798,2022/8/26,13:17,41-37.03N,141-36.55E,181,22.97,33.5532
799,2022/8/26,13:18,41-36.77N,141-36.55E,180,22.999,33.5577
800,2022/8/26,13:19,41-36.52N,141-36.54E,181,23.001,33.5636
801,2022/8/26,13:20,41-36.26N,141-36.52E,182,23.025,33.575
802,2022/8/26,13:21,41-36.00N,141-36.51E,182,22.898,33.5799
803,2022/8/26,13:22,41-35.73N,141-36.50E,181,22.933,33.5888
804,2022/8/26,13:23,41-35.47N,141-36.49E,182,22.89,33.5897
805,2022/8/26,13:24,41-35.21N,141-36.47E,182,22.903,33.5877
806,2022/8/26,13:25,41-34.94N,141-36.45E,182,22.977,33.5919
807,2022/8/26,13:26,41-34.68N,141-36.44E,181,23.066,33.5858
808,2022/8/26,13:27,41-34.42N,141-36.43E,181,23.127,33.5896
809,2022/8/26,13:28,41-34.16N,141-36.42E,180,23.117,33.585
810,2022/8/26,13:29,41-33.90N,141-36.42E,179,23.201,33.5695
811,2022/8/26,13:30,41-33.63N,141-36.41E,181,23.275,33.5602
812,2022/8/26,13:31,41-33.37N,141-36.41E,180,23.28,33.551
813,2022/8/26,13:32,41-33.11N,141-36.41E,178,23.249,33.5471
814,2022/8/26,13:33,41-32.85N,141-36.42E,178,23.318,33.5469
815,2022/8/26,13:34,41-32.58N,141-36.42E,179,23.388,33.5673
816,2022/8/26,13:35,41-32.32N,141-36.43E,179,23.36,33.5914
817,2022/8/26,13:36,41-32.05N,141-36.43E,179,23.281,33.607
818,2022/8/26,13:37,41-31.77N,141-36.44E,177,22.942,33.6005
819,2022/8/26,13:38,41-31.52N,141-36.46E,176,22.991,33.5823
820,2022/8/26,13:39,41-31.28N,141-36.48E,177,23.101,33.5652
821,2022/8/26,13:40,41-31.02N,141-36.49E,177,23.224,33.5854
822,2022/8/26,13:41,41-30.78N,141-36.50E,177,23.347,33.5927
823,2022/8/26,13:42,41-30.54N,141-36.52E,177,23.347,33.605
824,2022/8/26,13:43,41-30.28N,141-36.53E,178,23.203,33.6025
825,2022/8/26,13:44,41-30.04N,141-36.53E,179,23.041,33.6056
826,2022/8/26,13:45,41-29.79N,141-36.53E,180,23.093,33.6025
827,2022/8/26,13:46,41-29.54N,141-36.53E,179,23.132,33.6025
828,2022/8/26,13:47,41-29.28N,141-36.53E,179,23.232,33.5932
829,2022/8/26,13:48,41-29.03N,141-36.53E,179,23.356,33.5938
830,2022/8/26,13:49,41-28.77N,141-36.53E,180,23.448,33.5926
831,2022/8/26,13:50,41-28.51N,141-36.52E,181,23.45,33.6025
832,2022/8/26,13:51,41-28.26N,141-36.51E,181,23.386,33.6042
833,2022/8/26,13:52,41-27.99N,141-36.50E,181,23.378,33.5951
834,2022/8/26,13:53,41-27.73N,141-36.50E,180,23.071,33.5905
835,2022/8/26,13:54,41-27.48N,141-36.50E,181,22.879,33.5796
836,2022/8/26,13:55,41-27.22N,141-36.48E,181,22.883,33.5702
837,2022/8/26,13:56,41-26.97N,141-36.47E,181,22.889,33.5748
838,2022/8/26,13:57,41-26.71N,141-36.46E,181,22.88,33.5772
839,2022/8/26,13:58,41-26.45N,141-36.45E,181,22.882,33.57
840,2022/8/26,13:59,41-26.19N,141-36.44E,182,22.89,33.5727
841,2022/8/26,14:00,41-25.94N,141-36.42E,182,22.884,33.5756
842,2022/8/26,14:01,41-25.69N,141-36.41E,182,22.887,33.5692
843,2022/8/26,14:02,41-25.42N,141-36.40E,182,22.888,33.574
844,2022/8/26,14:03,41-25.17N,141-36.38E,182,22.89,33.573
845,2022/8/26,14:04,41-24.88N,141-36.37E,182,22.892,33.5691
846,2022/8/26,14:05,41-24.64N,141-36.35E,182,22.894,33.5729
847,2022/8/26,14:06,41-24.39N,141-36.33E,182,22.902,33.5693
848,2022/8/26,14:07,41-24.12N,141-36.32E,182,22.904,33.5731
849,2022/8/26,14:08,41-23.86N,141-36.30E,182,22.908,33.571
850,2022/8/26,14:09,41-23.61N,141-36.29E,182,22.912,33.5744
851,2022/8/26,14:10,41-23.34N,141-36.28E,182,22.912,33.5741
852,2022/8/26,14:11,41-23.07N,141-36.26E,182,22.91,33.5791
853,2022/8/26,14:12,41-22.82N,141-36.24E,182,22.905,33.5757
854,2022/8/26,14:13,41-22.58N,141-36.27E,171,22.89,33.5764
855,2022/8/26,14:14,41-22.34N,141-36.37E,160,22.658,33.5736
856,2022/8/26,14:15,41-22.10N,141-36.47E,163,22.592,33.559
857,2022/8/26,14:16,41-21.86N,141-36.55E,166,22.768,33.4909
858,2022/8/26,14:17,41-21.61N,141-36.61E,170,22.893,33.4815
859,2022/8/26,14:18,41-21.36N,141-36.65E,174,22.96,33.5062
860,2022/8/26,14:19,41-21.11N,141-36.67E,176,22.984,33.5279
861,2022/8/26,14:20,41-20.86N,141-36.69E,176,22.998,33.5409
862,2022/8/26,14:21,41-20.61N,141-36.70E,177,22.979,33.5491
863,2022/8/26,14:22,41-20.36N,141-36.71E,177,22.964,33.5563
864,2022/8/26,14:23,41-20.11N,141-36.73E,177,22.991,33.5545
865,2022/8/26,14:24,41-19.87N,141-36.73E,178,22.991,33.548
866,2022/8/26,14:25,41-19.61N,141-36.74E,179,22.975,33.5528
867,2022/8/26,14:26,41-19.36N,141-36.75E,179,22.968,33.5544
868,2022/8/26,14:27,41-19.10N,141-36.75E,179,22.976,33.5519
869,2022/8/26,14:28,41-18.86N,141-36.76E,178,22.991,33.5557
870,2022/8/26,14:29,41-18.60N,141-36.76E,179,23.004,33.555
871,2022/8/26,14:30,41-18.34N,141-36.77E,177,23.018,33.5542
872,2022/8/26,14:31,41-18.09N,141-36.80E,175,23.018,33.5573
873,2022/8/26,14:32,41-17.84N,141-36.83E,172,23.017,33.5574
874,2022/8/26,14:33,41-17.58N,141-36.88E,172,23.016,33.5532
875,2022/8/26,14:34,41-17.32N,141-36.93E,170,23.008,33.552
876,2022/8/26,14:35,41-17.07N,141-36.98E,169,22.924,33.5572
877,2022/8/26,14:36,41-16.82N,141-37.05E,168,22.882,33.5533
878,2022/8/26,14:37,41-16.57N,141-37.12E,166,22.858,33.5444
879,2022/8/26,14:38,41-16.33N,141-37.21E,164,22.82,33.5396
880,2022/8/26,14:39,41-16.08N,141-37.30E,164,22.84,33.532
881,2022/8/26,14:40,41-15.82N,141-37.40E,164,22.844,33.5291
882,2022/8/26,14:41,41-15.58N,141-37.49E,163,22.776,33.5327
883,2022/8/26,14:42,41-15.32N,141-37.59E,164,22.735,33.524
884,2022/8/26,14:43,41-15.06N,141-37.68E,164,22.709,33.5224
885,2022/8/26,14:44,41-14.82N,141-37.77E,164,22.62,33.5133
886,2022/8/26,14:45,41-14.56N,141-37.86E,164,22.484,33.5065
887,2022/8/26,14:46,41-14.32N,141-37.95E,164,22.447,33.4571
888,2022/8/26,14:47,41-14.07N,141-38.04E,164,22.461,33.4308
889,2022/8/26,14:48,41-13.82N,141-38.13E,164,22.496,33.4135
890,2022/8/26,14:49,41-13.56N,141-38.22E,164,22.63,33.4154
891,2022/8/26,14:50,41-13.31N,141-38.31E,164,22.643,33.4659
892,2022/8/26,14:51,41-13.07N,141-38.40E,164,22.692,33.5099
893,2022/8/26,14:52,41-12.82N,141-38.49E,164,22.748,33.5275
894,2022/8/26,14:53,41-12.57N,141-38.59E,164,22.787,33.5382
895,2022/8/26,14:54,41-12.33N,141-38.67E,164,22.721,33.5525
896,2022/8/26,14:55,41-12.08N,141-38.76E,164,22.602,33.5344
897,2022/8/26,14:56,41-11.84N,141-38.84E,165,22.444,33.4905
898,2022/8/26,14:57,41-11.59N,141-38.93E,165,22.361,33.4381
899,2022/8/26,14:58,41-11.34N,141-39.01E,165,22.277,33.387
900,2022/8/26,14:59,41-11.08N,141-39.10E,166,22.251,33.3726
901,2022/8/26,15:00,41-10.83N,141-39.18E,165,22.229,33.378
902,2022/8/26,15:01,41-10.59N,141-39.26E,166,22.212,33.3841
903,2022/8/26,15:02,41-10.34N,141-39.34E,166,22.164,33.3897
904,2022/8/26,15:03,41-10.09N,141-39.42E,166,22.14,33.4447
905,2022/8/26,15:04,41-09.83N,141-39.50E,166,22.091,33.4633
906,2022/8/26,15:05,41-09.58N,141-39.58E,166,22.04,33.4832
907,2022/8/26,15:06,41-09.33N,141-39.65E,166,22.013,33.4892
908,2022/8/26,15:07,41-09.07N,141-39.73E,167,22.001,33.4894
909,2022/8/26,15:08,41-08.81N,141-39.81E,167,21.994,33.4945
910,2022/8/26,15:09,41-08.56N,141-39.88E,167,21.994,33.5002
911,2022/8/26,15:10,41-08.29N,141-39.96E,167,21.988,33.4999
912,2022/8/26,15:11,41-08.04N,141-40.04E,167,21.973,33.4961
913,2022/8/26,15:12,41-07.78N,141-40.11E,167,21.951,33.4913
914,2022/8/26,15:13,41-07.52N,141-40.19E,167,21.945,33.4767
915,2022/8/26,15:14,41-07.27N,141-40.26E,167,21.927,33.4648
916,2022/8/26,15:15,41-07.01N,141-40.34E,167,21.909,33.4554
917,2022/8/26,15:16,41-06.76N,141-40.41E,167,21.904,33.4423
918,2022/8/26,15:17,41-06.50N,141-40.49E,167,21.915,33.4315
919,2022/8/26,15:18,41-06.24N,141-40.56E,167,21.924,33.4154
920,2022/8/26,15:19,41-05.99N,141-40.63E,167,21.934,33.4154
921,2022/8/26,15:20,41-05.72N,141-40.71E,167,21.95,33.4027
922,2022/8/26,15:21,41-05.47N,141-40.78E,167,21.959,33.4003
923,2022/8/26,15:22,41-05.21N,141-40.86E,167,21.953,33.3982
924,2022/8/26,15:23,41-04.95N,141-40.94E,167,21.944,33.3925
925,2022/8/26,15:24,41-04.69N,141-41.02E,167,21.935,33.3894
926,2022/8/26,15:25,41-04.43N,141-41.09E,167,21.918,33.3787
927,2022/8/26,15:26,41-04.17N,141-41.17E,167,21.892,33.3722
928,2022/8/26,15:27,41-03.91N,141-41.25E,167,21.872,33.3564
929,2022/8/26,15:28,41-03.64N,141-41.32E,167,21.832,33.3428
930,2022/8/26,15:29,41-03.38N,141-41.40E,167,21.8,33.3359
931,2022/8/26,15:30,41-03.11N,141-41.48E,167,21.852,33.3087
932,2022/8/26,15:31,41-02.86N,141-41.55E,167,21.887,33.3119
933,2022/8/26,15:32,41-02.60N,141-41.63E,167,21.945,33.3202
934,2022/8/26,15:33,41-02.34N,141-41.72E,166,21.975,33.3392
935,2022/8/26,15:34,41-02.07N,141-41.80E,167,21.939,33.3534
936,2022/8/26,15:35,41-01.81N,141-41.88E,167,21.851,33.3722
937,2022/8/26,15:36,41-01.55N,141-41.96E,166,21.702,33.3727
938,2022/8/26,15:37,41-01.30N,141-42.04E,165,21.748,33.3517
939,2022/8/26,15:38,41-01.04N,141-42.13E,166,21.803,33.3336
940,2022/8/26,15:39,41-00.78N,141-42.21E,165,21.824,33.3423
941,2022/8/26,15:40,41-00.52N,141-42.30E,165,21.844,33.3449
942,2022/8/26,15:41,41-00.26N,141-42.39E,165,21.867,33.3421
943,2022/8/26,15:42,41-00.00N,141-42.48E,164,21.859,33.3474
944,2022/8/26,15:43,40-59.75N,141-42.56E,166,21.877,33.3518
945,2022/8/26,15:44,40-59.49N,141-42.64E,167,21.903,33.3487
946,2022/8/26,15:45,40-59.22N,141-42.72E,166,21.944,33.3598
947,2022/8/26,15:46,40-58.97N,141-42.80E,166,21.961,33.3593
948,2022/8/26,15:47,40-58.71N,141-42.88E,166,21.976,33.366
949,2022/8/26,15:48,40-58.44N,141-42.96E,167,21.776,33.3788
950,2022/8/26,15:49,40-58.19N,141-43.04E,166,21.451,33.3713
951,2022/8/26,15:50,40-57.93N,141-43.13E,166,21.308,33.298
952,2022/8/26,15:51,40-57.67N,141-43.21E,166,21.232,33.2401
953,2022/8/26,15:52,40-57.41N,141-43.29E,167,21.2,33.1907
954,2022/8/26,15:53,40-57.14N,141-43.37E,166,21.52,33.1632
955,2022/8/26,15:54,40-56.87N,141-43.45E,167,21.831,33.2064
956,2022/8/26,15:55,40-56.61N,141-43.53E,167,22.024,33.2993
957,2022/8/26,15:56,40-56.36N,141-43.60E,167,22.04,33.3345
958,2022/8/26,15:57,40-56.08N,141-43.68E,167,22.019,33.383
959,2022/8/26,15:58,40-55.83N,141-43.75E,167,21.968,33.3856
960,2022/8/26,15:59,40-55.57N,141-43.83E,167,21.94,33.3824
961,2022/8/26,16:00,40-55.31N,141-43.91E,167,21.939,33.3756
962,2022/8/26,16:01,40-55.05N,141-43.99E,166,21.95,33.3766
963,2022/8/26,16:02,40-54.78N,141-44.07E,166,21.964,33.3747